Wind_Speed
13 13 13 13 12 12 12 11 11 11 11 10 10 10 10 9 9 8 8 8 7 7 6 5 4 4 3 2 2 2 1 1 1 1 2 3 4 5 6 7 7 7 7
12 12 12 11 11 11 11 11 11 11 10 10 9 9 9 9 8 8 8 7 6 5 4 5 4 4 3 3 2 2 2 2 2 2 3 3 4 4 6 7 7 8 9
10 10 10 10 10 10 10 10 10 10 9 9 9 8 8 8 8 7 7 6 6 5 4 4 4 4 3 3 3 3 3 3 3 4 4 4 5 6 7 7 7 8 9
8 8 8 9 9 9 10 10 9 9 9 9 9 8 8 7 7 6 5 5 5 5 4 4 3 3 3 3 3 4 4 4 4 4 4 4 5 6 6 7 7 8 8
6 6 7 8 8 9 9 9 9 9 9 8 7 7 7 7 7 6 5 4 4 4 4 4 3 3 3 4 4 5 5 4 4 4 5 5 5 6 6 7 8 8 9
5 5 5 6 6 7 8 8 8 8 8 8 7 6 6 6 7 7 6 4 4 4 4 4 3 3 4 4 5 6 6 6 6 5 5 6 6 7 7 8 9 9 9
3 4 4 5 5 6 6 7 7 7 7 7 7 7 6 6 6 7 7 6 4 4 4 4 4 4 4 5 5 6 6 6 6 6 6 7 7 8 9 9 9 9 10
2 2 3 3 4 5 5 6 6 7 7 6 6 6 6 5 5 5 6 6 5 5 4 4 4 4 4 5 5 6 7 7 7 7 7 7 8 9 9 10 10 10 11
2 1 1 2 3 4 4 5 5 6 6 6 5 5 5 5 5 5 5 5 5 5 5 5 5 5 6 6 6 6 7 7 7 8 8 8 9 9 10 11 11 11 11
3 2 1 2 3 3 4 4 5 5 5 5 5 4 4 5 5 6 5 5 5 5 5 6 6 7 7 7 7 7 8 8 8 8 8 9 9 10 11 11 12 12 12
4 3 2 2 3 3 4 4 4 4 4 4 5 5 4 5 5 6 6 6 5 6 6 7 7 8 8 8 8 8 9 9 9 9 9 9 10 11 12 12 13 13 13
6 5 4 4 4 4 4 4 4 5 4 4 5 5 5 5 6 6 7 7 6 7 7 7 8 8 9 9 10 9 9 10 10 10 10 10 11 12 13 13 13 13 13
8 7 7 6 5 6 5 5 5 5 5 5 5 6 6 6 7 7 7 7 7 8 8 8 8 9 9 10 11 11 11 11 11 11 11 11 12 12 13 13 14 14 14
11 9 9 8 7 7 7 7 6 6 6 6 6 7 7 7 8 8 8 8 8 9 9 9 9 10 10 11 12 12 11 12 12 12 12 13 13 14 14 14 15 15 15
15 13 11 10 9 9 9 9 9 9 8 8 7 7 8 8 9 9 9 9 10 10 10 10 10 11 12 12 13 13 13 13 13 13 14 14 15 15 16 16 16 16 16
17 16 13 12 12 11 11 12 12 12 11 10 10 10 9 10 10 11 10 11 11 12 12 12 12 12 13 13 14 14 14 14 15 15 15 16 16 17 17 18 18 18 18
19 19 17 16 16 14 14 14 14 14 13 13 13 12 12 12 12 12 12 12 13 13 14 14 14 14 14 15 15 16 16 16 16 17 17 17 18 18 19 19 18 19 19
22 20 20 19 19 18 18 17 16 17 16 15 15 15 14 14 13 14 14 14 15 15 16 16 16 16 16 16 17 17 17 17 18 18 18 18 19 19 20 20 20 20 20
23 22 21 20 20 20 20 19 19 19 18 17 17 17 17 17 16 16 16 16 17 17 18 16 17 18 18 19 18 18 19 19 19 19 19 19 20 21 21 21 21 21 21
26 25 22 22 21 20 20 21 21 21 20 20 20 20 19 19 18 18 17 18 18 19 19 18 19 19 19 20 20 20 20 20 21 21 21 22 22 22 22 22 22 22 23
26 25 24 23 22 22 22 22 22 22 22 22 22 21 21 21 20 20 19 19 20 21 21 21 21 21 21 21 21 22 22 23 23 23 23 23 24 24 24 24 24 25 25
27 26 25 24 24 24 23 23 23 23 24 24 24 24 23 22 21 21 21 22 22 23 23 23 23 22 22 22 23 24 25 25 25 25 25 25 26 26 27 26 27 27 26
28 27 25 25 24 24 24 24 25 25 25 25 25 25 24 23 23 23 23 24 24 25 25 26 25 24 24 25 25 26 26 26 26 27 27 27 27 28 28 28 28 28 27
28 28 27 27 26 26 25 25 26 26 26 25 25 25 25 25 25 25 25 26 26 26 27 27 27 27 26 26 26 27 27 27 27 28 28 28 28 28 29 29 29 29 28
29 29 29 28 27 27 27 26 27 27 26 26 27 27 26 26 25 26 27 27 27 27 28 28 29 29 27 26 27 28 28 28 28 29 29 29 29 29 29 30 29 29 29
30 30 30 29 28 28 28 28 28 28 28 27 28 28 29 28 27 27 27 28 28 28 28 29 29 29 28 28 28 28 29 29 29 30 31 30 30 30 30 30 29 30 30
Wind_Direction
46 47 49 53 56 58 60 63 65 65 67 68 68 68 68 67 69 74 82 87 90 94 90 85 88 95 102 104 107 104 88 29 336 319 314 307 297 290 282 281 285 284 283
45 44 45 51 56 59 60 61 63 63 65 65 66 68 67 65 67 71 77 82 83 81 79 77 74 73 72 66 56 44 21 352 330 315 307 313 310 298 291 287 287 284 283
44 45 44 47 54 58 59 60 61 60 61 62 62 64 62 61 61 65 70 74 73 71 75 72 64 58 59 49 30 11 352 338 321 312 311 312 316 309 302 297 292 290 288
39 44 43 44 46 53 55 56 56 55 57 58 57 59 60 59 58 59 61 61 62 62 57 53 53 48 40 24 2 350 338 326 317 314 315 317 321 319 321 315 307 303 297
32 42 43 45 46 46 48 50 51 51 51 53 52 55 58 54 52 52 52 52 52 47 44 38 38 36 23 6 353 347 341 334 324 317 316 317 319 320 320 316 307 303 301
32 44 47 47 46 42 43 43 43 45 46 49 49 52 51 49 48 48 47 52 47 37 32 24 20 12 360 350 346 344 340 338 330 323 321 319 318 317 317 315 312 306 303
28 33 40 44 44 39 35 35 35 37 40 46 46 46 43 43 47 49 48 44 39 31 25 19 9 354 347 341 340 337 333 332 330 326 323 320 319 317 315 313 312 312 309
32 34 32 23 32 35 29 25 25 29 33 37 37 40 38 39 44 46 43 36 31 28 23 14 3 347 339 335 336 336 332 330 328 325 322 320 319 315 313 312 310 309 308
332 350 9 8 18 21 18 15 14 17 20 21 22 27 28 27 27 26 25 21 15 11 9 6 4 0 353 348 348 344 339 334 330 325 321 318 315 312 312 312 312 311 308
289 324 0 359 6 6 4 5 5 6 10 11 9 12 13 16 14 11 8 1 354 351 351 353 354 352 348 343 341 340 336 331 327 326 322 317 315 314 314 313 312 312 312
275 276 278 303 323 331 337 344 350 353 353 354 354 351 355 1 4 1 357 353 345 337 340 343 344 344 342 339 337 335 333 329 326 326 323 317 314 315 315 314 313 313 311
253 255 259 280 294 301 307 315 325 332 334 336 340 343 344 345 345 345 347 345 340 335 331 335 335 338 339 338 335 332 330 327 325 325 323 317 314 313 314 313 312 312 311
251 247 252 262 273 281 290 297 306 309 309 314 322 330 335 332 333 333 332 333 332 331 329 331 329 330 331 331 332 331 328 325 322 321 321 319 317 316 315 314 311 309 307
255 254 255 255 263 272 278 280 287 293 297 300 307 315 317 317 319 319 320 323 323 323 322 321 320 320 323 325 329 329 327 325 323 320 317 316 317 316 315 314 312 310 308
258 256 255 253 259 264 270 273 275 281 286 290 296 301 305 307 308 310 310 313 317 318 318 319 316 315 316 319 321 323 322 320 317 315 314 314 314 315 313 312 310 308 307
265 261 256 253 256 261 265 267 269 273 279 284 288 287 291 297 299 301 303 305 309 311 311 313 311 310 311 313 315 316 317 318 316 313 311 311 312 313 313 311 309 307 306
261 259 256 262 258 260 263 265 265 267 269 275 281 286 286 287 290 294 296 298 302 304 305 309 309 307 307 308 309 312 312 312 314 313 311 311 311 311 311 310 308 308 307
262 259 261 263 260 260 261 262 266 265 267 272 276 280 283 282 283 286 290 292 296 299 300 301 303 303 303 302 304 307 309 309 310 312 312 311 310 309 309 307 306 305 305
259 259 260 260 260 260 262 264 264 265 266 268 272 275 277 276 278 282 285 287 291 295 298 295 295 297 298 299 300 304 306 306 307 308 309 309 309 309 308 306 305 305 304
260 258 257 260 261 260 262 264 264 265 267 269 270 270 271 274 278 281 283 285 286 290 295 294 292 294 297 299 296 298 302 303 304 304 305 307 309 308 307 305 305 305 304
262 263 261 259 260 261 264 266 265 266 267 267 269 270 268 271 275 279 281 283 284 285 288 289 291 292 294 295 295 296 299 302 303 302 303 305 306 307 306 304 304 303 302
258 259 260 259 258 260 262 264 264 266 267 267 267 269 269 271 275 279 281 282 285 286 287 288 287 288 289 292 294 295 297 299 300 300 301 302 303 304 303 303 303 302 302
259 260 261 260 259 259 261 263 265 265 266 267 268 268 267 268 273 277 280 282 285 286 286 287 287 286 288 289 291 292 294 296 298 298 299 300 301 302 303 302 302 301 300
258 260 261 261 259 259 259 261 263 265 267 268 269 270 268 270 271 275 280 282 284 286 286 284 285 285 286 289 290 291 292 295 297 298 298 299 301 301 302 302 300 300 300
256 258 261 261 260 258 258 260 263 265 268 269 270 272 272 271 272 276 279 281 282 283 283 284 285 284 284 287 290 290 292 294 295 296 297 298 299 300 301 301 299 299 298
254 256 259 258 259 260 261 261 262 265 268 269 271 273 275 275 276 277 278 279 281 283 282 284 284 283 285 287 290 292 293 294 295 295 296 296 296 297 298 299 299 298 297
Height
5917 5915 5913 5911 5910 5909 5908 5907 5906 5905 5904 5903 5902 5901 5900 5900 5899 5898 5898 5898 5898 5898 5898 5898 5897 5897 5897 5897 5896 5896 5895 5895 5894 5894 5893 5893 5892 5891 5890 5889 5888 5888 5887
5918 5917 5915 5914 5912 5911 5910 5908 5907 5906 5905 5904 5903 5903 5902 5901 5900 5900 5899 5899 5899 5898 5898 5898 5898 5897 5897 5896 5896 5895 5895 5894 5894 5893 5892 5892 5891 5890 5889 5888 5887 5886 5885
5920 5918 5917 5916 5914 5913 5911 5910 5909 5908 5907 5905 5905 5904 5903 5902 5902 5901 5901 5900 5900 5899 5899 5899 5898 5898 5897 5897 5896 5895 5895 5894 5893 5892 5892 5891 5890 5889 5888 5886 5885 5884 5883
5920 5919 5918 5917 5915 5914 5913 5912 5911 5909 5908 5907 5906 5905 5905 5904 5903 5902 5902 5901 5900 5900 5899 5899 5898 5898 5897 5896 5896 5895 5894 5893 5892 5891 5890 5890 5889 5888 5886 5885 5884 5882 5881
5921 5920 5919 5918 5917 5915 5914 5913 5912 5911 5909 5908 5907 5907 5906 5905 5904 5903 5902 5901 5901 5900 5899 5899 5898 5898 5897 5896 5895 5894 5893 5892 5891 5890 5889 5888 5887 5886 5885 5883 5882 5881 5879
5921 5920 5919 5918 5917 5916 5915 5914 5913 5912 5910 5909 5908 5908 5907 5906 5905 5903 5902 5902 5901 5900 5900 5899 5898 5897 5896 5895 5894 5893 5892 5891 5889 5888 5887 5886 5885 5884 5883 5881 5880 5879 5877
5921 5920 5919 5919 5918 5917 5916 5915 5914 5912 5911 5910 5909 5908 5907 5906 5905 5904 5903 5902 5901 5900 5899 5899 5898 5897 5896 5895 5893 5892 5891 5889 5888 5887 5886 5885 5883 5882 5881 5879 5877 5876 5874
5919 5919 5919 5919 5918 5917 5916 5915 5914 5912 5912 5910 5909 5908 5908 5907 5905 5904 5903 5902 5901 5900 5899 5898 5897 5896 5895 5894 5892 5891 5889 5888 5886 5885 5884 5883 5881 5880 5879 5877 5875 5874 5872
5918 5918 5918 5918 5917 5917 5916 5915 5914 5913 5912 5910 5909 5908 5908 5907 5905 5904 5903 5902 5901 5900 5899 5898 5896 5895 5894 5892 5891 5889 5888 5886 5885 5884 5882 5881 5879 5878 5876 5875 5873 5871 5869
5917 5916 5916 5917 5917 5916 5915 5914 5913 5912 5911 5910 5909 5908 5907 5906 5905 5904 5903 5902 5901 5900 5898 5897 5896 5894 5893 5891 5890 5888 5886 5885 5883 5882 5880 5878 5877 5875 5873 5872 5870 5868 5866
5915 5915 5915 5915 5915 5915 5914 5913 5912 5911 5910 5909 5908 5908 5907 5906 5904 5903 5902 5901 5900 5899 5898 5896 5895 5893 5892 5890 5888 5886 5885 5883 5881 5880 5878 5876 5874 5873 5871 5869 5867 5865 5863
5912 5913 5913 5913 5914 5914 5913 5912 5911 5910 5909 5908 5908 5907 5906 5905 5904 5902 5901 5900 5899 5897 5896 5895 5893 5892 5890 5888 5887 5885 5883 5881 5879 5877 5875 5874 5872 5870 5868 5866 5864 5862 5860
5909 5910 5910 5911 5911 5912 5911 5910 5909 5909 5908 5907 5906 5905 5905 5903 5902 5901 5900 5898 5897 5896 5894 5893 5892 5890 5889 5887 5885 5883 5881 5879 5877 5875 5873 5871 5869 5867 5865 5863 5860 5858 5856
5905 5906 5907 5908 5908 5909 5909 5908 5908 5907 5906 5906 5905 5904 5903 5902 5901 5899 5898 5897 5895 5894 5892 5891 5889 5888 5886 5885 5882 5880 5878 5877 5874 5872 5870 5868 5866 5864 5862 5859 5857 5854 5852
5901 5902 5903 5904 5904 5905 5906 5906 5905 5905 5904 5903 5903 5902 5901 5900 5899 5897 5896 5895 5893 5892 5890 5888 5887 5885 5884 5882 5880 5878 5876 5874 5871 5869 5867 5865 5863 5860 5858 5856 5853 5851 5848
5898 5898 5899 5899 5900 5901 5902 5902 5902 5902 5901 5900 5900 5899 5898 5897 5896 5895 5893 5892 5891 5889 5887 5886 5884 5882 5881 5879 5877 5875 5873 5870 5868 5866 5863 5861 5859 5857 5854 5852 5849 5847 5844
5893 5893 5894 5895 5895 5896 5897 5898 5898 5898 5897 5897 5897 5896 5895 5894 5893 5892 5890 5889 5888 5886 5884 5882 5881 5879 5878 5876 5874 5872 5869 5867 5865 5862 5859 5857 5855 5852 5850 5847 5845 5842 5839
5888 5889 5889 5890 5891 5891 5892 5892 5892 5893 5893 5893 5892 5892 5891 5890 5889 5888 5887 5885 5884 5882 5880 5878 5876 5875 5874 5872 5870 5868 5865 5863 5861 5858 5855 5853 5850 5848 5845 5843 5840 5838 5835
5882 5883 5884 5884 5885 5886 5887 5887 5887 5887 5887 5887 5887 5887 5886 5885 5884 5883 5882 5881 5879 5877 5875 5872 5872 5870 5869 5867 5865 5863 5861 5859 5856 5854 5851 5849 5846 5843 5840 5838 5835 5833 5830
5876 5877 5878 5878 5878 5879 5880 5880 5881 5880 5880 5881 5881 5881 5880 5880 5879 5878 5877 5875 5874 5873 5871 5868 5867 5865 5864 5862 5860 5858 5856 5854 5852 5849 5846 5844 5841 5838 5835 5833 5830 5827 5824
5869 5870 5871 5872 5873 5873 5874 5874 5874 5874 5874 5875 5875 5874 5874 5874 5873 5872 5871 5870 5868 5867 5865 5864 5862 5860 5859 5857 5855 5853 5851 5849 5846 5844 5841 5838 5835 5832 5829 5827 5824 5821 5818
5862 5863 5865 5865 5866 5866 5867 5868 5868 5868 5868 5868 5868 5868 5867 5867 5867 5866 5865 5863 5862 5861 5859 5857 5856 5854 5853 5851 5849 5847 5845 5842 5840 5837 5835 5832 5829 5826 5823 5820 5817 5814 5811
5854 5855 5857 5858 5859 5859 5860 5860 5861 5861 5861 5861 5861 5860 5860 5860 5860 5859 5858 5857 5855 5854 5852 5851 5849 5847 5846 5843 5841 5839 5837 5835 5833 5830 5827 5825 5822 5819 5816 5813 5810 5807 5804
5846 5847 5849 5850 5851 5852 5852 5852 5853 5854 5854 5853 5853 5853 5852 5852 5852 5851 5850 5849 5848 5846 5845 5843 5842 5840 5838 5836 5834 5832 5829 5827 5825 5822 5820 5817 5814 5811 5808 5805 5802 5799 5796
5838 5839 5841 5842 5843 5844 5844 5845 5845 5846 5846 5846 5846 5845 5845 5844 5843 5843 5842 5841 5840 5838 5837 5835 5834 5832 5830 5828 5826 5823 5821 5819 5817 5814 5812 5809 5807 5804 5801 5798 5794 5791 5788
5829 5831 5832 5833 5835 5835 5836 5836 5837 5838 5838 5838 5838 5837 5837 5835 5834 5833 5833 5832 5831 5830 5828 5826 5825 5823 5821 5819 5817 5815 5813 5811 5808 5806 5804 5801 5798 5795 5792 5789 5786 5783 5780